Location: Sommers-Bausch Observatory
(40.0037°N, 105.2635°W)
Time: 12:48:13
(UTC-07:00)

Daily predictions for brighter satellites

Satellite Brightness Start Highest point End
(mag) Time Altitude Azimuth Time Altitude Azimuth Time Altitude Azimuth
CZ-4 R/B 4.5 17:31:34 10° SSE 17:35:38 59° ENE 17:39:43 10° N
Cosmos 1634 Rocket 4.0 17:30:30 10° N 17:36:41 66° E 17:42:46 10° SSE
BREEZE-M DEB (TANK) 2.7 17:39:09 10° SW 17:41:43 37° SE 17:43:59 10° ENE
AQUARIUS 4.5 17:37:30 10° S 17:41:59 75° WSW 17:46:30 10° NNW
Cosmos 2297 4.4 17:38:22 10° N 17:43:24 31° ENE 17:48:25 10° ESE
Lacrosse 5 4.1 17:43:07 10° NW 17:45:26 13° NNW 17:47:45 10° NNE
OTV 4 2.4 17:43:41 10° W 17:46:15 26° SSW 17:48:48 10° SE
BREEZE-M DEB (TANK) 1.5 17:46:24 10° WSW 17:49:44 70° NNW 17:51:41 12° NE
Cosmos 1844 Rocket 3.8 17:44:51 10° NW 17:50:17 49° WSW 17:55:41 10° S
Meteor 1-28 Rocket 4.0 17:47:14 10° NNE 17:50:33 30° E 17:53:51 10° SSE
YAOGAN 1 3.2 17:51:52 10° S 17:56:08 60° W 18:00:25 10° NNW
CZ-3A R/B 3.4 17:51:34 10° NW 17:56:20 35° NNE 18:01:10 10° E
Cosmos 1125 Rocket 3.5 17:51:27 10° NNW 17:56:41 87° WSW 18:01:52 10° SSE
CZ-2C R/B 3.6 17:52:03 10° S 17:56:51 47° W 18:01:32 10° NNW
Cosmos 1707 Rocket 4.5 17:53:17 10° NNE 17:56:55 25° ENE 18:00:31 10° SE
COSMO-SKYMED 1 2.6 17:53:01 10° NNE 17:57:19 59° E 18:01:36 10° S
Meteor 2-10 4.1 17:53:36 10° N 17:58:38 56° ENE 18:03:47 10° SSE
CENTAUR R/B 4.0 17:59:24 10° WSW 18:04:53 31° NW 18:11:01 10° NNE
Resurs 01 Rocket 3.1 18:03:50 14° E 18:05:07 16° ENE 18:07:49 10° NNE
Lacrosse 5 rocket 1.1 18:01:26 10° NW 18:05:12 67° NE 18:09:12 10° SE
Thor Agena Rocket 4.2 18:00:08 10° N 18:05:18 59° WNW 18:10:21 10° SSW
Cosmos 1184 Rocket 4.3 18:04:08 10° SE 18:06:27 18° E 18:06:41 18° E
Cosmos 1666 Rocket 4.4 18:03:11 10° SSE 18:06:55 29° E 18:10:42 10° NNE
BREEZE M DEB (TANK) 1.9 18:06:22 10° NW 18:08:54 35° NNE 18:09:43 25° ENE
MSX 4.5 18:04:04 10° S 18:09:42 60° W 18:15:22 10° NNW
Meteor 1-11 4.2 18:06:11 10° S 18:11:51 83° E 18:17:39 10° N
Cosmos 2151 3.3 18:08:33 10° SSW 18:12:44 67° W 18:16:55 10° N
Cosmos 1980 4.2 18:07:10 10° SW 18:12:46 62° WNW 18:18:24 10° NNE
METEOR-M 4.4 18:09:23 10° SE 18:14:28 46° ENE 18:19:34 10° N
Timation 1 Rocket 4.3 18:10:05 10° NNW 18:16:04 63° ENE 18:22:00 10° SE
Cosmos 1538 Rocket 4.4 18:11:10 10° S 18:16:08 44° ESE 18:21:10 10° NNE
Iridium 4 Rocket 4.2 18:15:28 10° SE 18:18:58 23° E 18:19:41 22° ENE
CZ-4 R/B 4.4 18:18:48 10° SW 18:21:34 19° W 18:24:21 10° NW
Cosmos 44 4.4 18:16:47 10° SW 18:21:49 46° NW 18:26:41 10° NNE
BREEZE-M DEB (TANK) 3.0 18:21:20 10° SSW 18:22:37 22° SE 18:22:37 22° SE
ALOS 3.1 18:21:04 10° SE 18:25:01 28° ENE 18:28:58 10° N
Cosmos 2279 Rocket 4.0 18:19:04 10° N 18:25:19 88° W 18:31:33 10° S
Cosmos 1626 2.1 18:24:50 10° S 18:28:29 56° E 18:31:36 14° NNE
NOAA 12 4.0 18:25:06 10° SSE 18:30:18 70° ENE 18:35:32 10° N
Cosmos 2333 Rocket 3.6 18:27:08 10° SW 18:32:19 36° WNW 18:37:32 10° N
Cosmos 2219 Rocket 4.0 18:28:36 10° WSW 18:33:24 28° WNW 18:38:14 10° N
Aureole 2 Rocket 3.8 18:30:06 10° SW 18:33:40 45° WNW 18:37:34 10° N
SJ-6B 2.9 18:30:01 10° SSE 18:33:59 57° ENE 18:38:03 10° N
Cosmos 1603 4.5 18:31:26 10° SSE 18:36:09 29° ESE 18:36:59 27° E
Cosmos 1703 3.3 18:33:42 10° S 18:37:35 81° W 18:41:30 10° N
Cosmos 2242 Rocket 4.0 18:34:17 10° N 18:38:24 37° ENE 18:42:31 10° SE
Cosmos 1455 2.1 18:37:48 10° N 18:41:34 58° E 18:45:19 10° SSE
Nadezhda 4 Rocket 3.9 18:38:07 10° S 18:44:19 72° E 18:50:37 10° NNE
Cosmos 2278 Rocket 3.6 18:39:35 10° NW 18:44:51 40° WSW 18:50:05 10° S
Cosmos 1805 Rocket 3.9 18:40:54 10° SSW 18:45:20 68° W 18:49:47 10° N
Lacrosse 4 Rocket 2.7 18:46:29 10° N 18:48:34 23° NNE 18:48:34 23° NNE
FREGAT/IRIS 2.6 18:48:01 10° S 18:51:04 83° WSW 18:54:07 10° NNW
Cosmos 773 Rocket 3.8 18:52:03 10° S 18:57:10 70° ESE 18:59:32 32° NNE
SL-19 R/B 4.2 18:52:54 10° SSE 18:58:47 73° ENE 19:04:24 10° NNW
Abrixas 4.3 18:56:41 10° WNW 18:58:45 24° NW 18:58:45 24° NW
Sich 1 3.3 18:58:08 10° SSW 19:02:33 69° W 19:06:47 11° N
Cosmos 1092 Rocket 3.9 18:58:26 10° S 19:04:44 75° E 19:11:05 10° N
Cosmos 1461 4.1 19:04:41 10° WSW 19:08:37 39° NW 19:10:07 28° N
Cosmos 2237 Rocket 4.2 19:04:18 10° WSW 19:08:50 25° NW 19:13:26 10° N
Cosmos 1633 Rocket 3.4 19:05:46 10° SSW 19:10:08 64° W 19:13:18 18° N
USA 215 3.2 19:08:59 26° SE 19:12:59 89° SW 19:19:35 10° NW
Cosmos 2369 Rocket 3.9 19:09:25 10° N 19:11:17 18° NNE 19:11:17 18° NNE
SL-16 R/B 3.1 19:10:01 10° SW 19:15:27 48° WNW 19:19:54 15° N
Cosmos 2195 Rocket 4.3 19:23:49 10° S 19:29:53 77° E 19:30:57 61° NNE
Lacrosse 5 4.2 19:28:19 10° NNW 19:29:18 12° N 19:29:18 12° N
Resurs 01 Rocket 2.5 19:41:22 48° W 19:41:22 48° W 19:45:30 10° NNW
Spot 2 Rocket 4.1 19:37:54 10° S 19:42:49 54° W 19:47:46 10° NNW
Lacrosse 5 rocket 4.3 19:42:13 10° W 19:44:01 13° WSW 19:45:52 10° SSW
CZ-4C R/B 4.5 19:45:48 10° NNW 19:48:11 17° N 19:48:11 17° N
USA 229 DEB 4.1 19:51:41 10° SW 19:58:25 58° NW 19:59:43 50° N
USA 229 4.1 19:51:46 10° SW 19:58:31 58° NW 19:59:46 51° NNW
ALOS 4.1 19:58:21 10° SSW 20:02:22 28° W 20:06:24 10° NW
BREEZE-M DEB (TANK) 4.3 20:05:33 10° SW 20:34:49 10° ENE 20:35:09 10° ENE
